www.pogodaiklimat.ru

Погода и климат >> Архив погоды >> Оман >> Khasab


ПОГОДА в Khasab

  • Прогноз погоды в Khasab
  • Монитор погоды в Khasab
  • Климат города

АРХИВ ПОГОДЫ в Khasab

Время (UTC), дата Ветер
(напр.,м/с)
 
Видим.   Явления Облачность Т
(С)
Тd
(С)
f
(%)
Тe
(С)
Тes
(С)
Комфортность P
(гПа)
Po
(гПа)
Тmin
(С)
Tmax
(С)
R
(мм)
R24
(мм)
S
(см)
12 12.12 СЗ 4 н/о н/о +24.8 +16.0 58 +28 +28 жарко 1017.7 1016.3
15 12.12 штиль 0 н/о н/о +23.7 +15.5 60 +27 +27 жарко 1018.8 1017.3
18 12.12 штиль 0 н/о н/о +23.1 +15.8 63 +27 +27 душно 1019.2 1017.8 +27.1
21 12.12 ЮВ 3 н/о н/о +21.5 +15.5 69 +25 +25 комфорт 1018.9 1017.5
00 13.12 ЮВ 2 н/о н/о +20.1 +13.8 67 +23 +23 комфорт 1019.0 1017.6
03 13.12 ЮВ 3 н/о н/о +19.7 +12.2 62 +21 +21 комфорт 1020.3 1018.8
06 13.12 В 2 н/о н/о +24.6 +11.4 44 +26 +26 жарко 1022.1 1020.7 +19.3
09 13.12 С 4 н/о н/о +24.4 +15.8 59 +28 +28 душно 1020.1 1018.7
12 13.12 СЗ 3 н/о н/о +24.6 +14.9 55 +27 +27 жарко 1019.1 1017.7
15 13.12 штиль 0 н/о н/о +24.3 +14.0 53 +27 +27 жарко 1020.4 1018.9
18 13.12 ЮВ 1 н/о н/о +22.7 +14.5 60 +26 +26 жарко 1020.8 1019.4 +25.6
21 13.12 ЮВ 2 н/о н/о +21.7 +13.9 61 +25 +25 комфорт 1020.2 1018.7
00 14.12 ЮВ 2 н/о н/о +20.8 +14.0 65 +24 +24 комфорт 1020.2 1018.8
03 14.12 ЮВ 3 н/о н/о +20.4 +13.5 65 +23 +23 комфорт 1021.5 1020.0
06 14.12 ЮВ 2 н/о н/о +24.3 +11.8 46 +26 +26 жарко 1023.0 1021.6 +19.6
09 14.12 С 5 н/о н/о +24.5 +14.2 53 +27 +27 жарко 1020.8 1019.4
12 14.12 С 2 н/о н/о +24.7 +12.1 45 +26 +26 жарко 1019.9 1018.5
15 14.12 нст 1 н/о н/о +24.3 +12.8 49 +26 +26 жарко 1021.4 1020.0
18 14.12 ЮВ 1 н/о н/о +23.2 +12.1 50 +26 +26 жарко 1021.8 1020.3 +26.2
21 14.12 ЮВ 2 н/о н/о +21.9 +13.2 58 +25 +25 комфорт 1020.7 1019.3
00 15.12 ЮВ 2 н/о н/о +21.3 +13.5 61 +24 +24 комфорт 1020.5 1019.1
03 15.12 ЮВ 2 н/о н/о +20.6 +14.3 67 +24 +24 комфорт 1021.3 1019.8
06 15.12 ЮВ 3 н/о н/о +24.0 +14.7 56 +27 +27 жарко 1022.7 1021.3 +20.1
09 15.12 В 4 н/о н/о +26.0 +15.5 52 +29 +29 душно 1020.3 1018.8
12 15.12 В 4 н/о н/о +25.2 +15.7 56 +28 +28 жарко 1019.7 1018.3
15 15.12 В 5 н/о н/о +24.5 +16.0 59 +28 +28 душно 1021.0 1019.6
18 15.12 нст 1 н/о н/о +23.4 +15.3 60 +28 +28 душно 1021.8 1020.4 +26.4
21 15.12 ЮВ 2 н/о н/о +22.4 +14.8 62 +26 +26 жарко 1021.2 1019.8
00 16.12 ЮВ 3 н/о н/о +21.1 +14.4 66 +24 +24 комфорт 1021.5 1020.0
03 16.12 ЮВ 3 н/о н/о +20.2 +13.8 67 +23 +23 комфорт 1022.8 1021.4
06 16.12 ЮВ 3 н/о н/о +24.5 +12.1 46 +26 +26 жарко 1024.7 1023.3 +20.1
09 16.12 С 4 н/о н/о +25.0 +15.9 57 +28 +28 жарко 1022.4 1021.0
12 16.12 С 5 н/о н/о +24.8 +16.6 60 +28 +28 жарко 1020.9 1019.5
15 16.12 С 2 н/о н/о +24.8 +13.1 48 +27 +27 жарко 1022.5 1021.1
18 16.12 нст 1 н/о н/о +23.3 +14.9 59 +27 +27 душно 1022.9 1021.5 +26.9
21 16.12 ЮВ 2 н/о н/о +21.1 +11.7 55 +23 +23 комфорт 1022.2 1020.7
00 17.12 ЮВ 4 н/о н/о +20.1 +10.2 53 +22 +22 комфорт 1021.6 1020.2
03 17.12 ЮВ 2 н/о н/о +19.7 +9.3 51 +21 +21 комфорт 1022.5 1021.1
06 17.12 ЮВ 3 н/о н/о +24.1 +8.6 37 +25 +25 комфорт 1024.1 1022.7 +19.0
09 17.12 С 4 н/о н/о +24.2 +15.0 56 +27 +27 жарко 1021.1 1019.7
12 17.12 С 6 н/о н/о +24.6 +11.2 43 +26 +26 жарко 1019.8 1018.4
15 17.12 ЮВ 2 н/о н/о +24.3 +5.3 29 +24 +24 комфорт 1020.5 1019.1
18 17.12 ЮВ 3 н/о н/о +21.9 +7.3 39 +23 +23 комфорт 1021.2 1019.8 +26.3
21 17.12 ЮВ 3 н/о н/о +20.5 +6.9 41 +22 +22 комфорт 1020.6 1019.2
00 18.12 ЮВ 3 н/о н/о +19.5 +6.5 43 +20 +20 1020.6 1019.1
03 18.12 ЮВ 3 н/о н/о +18.8 +5.2 41 +19 +19 1021.4 1020.0
06 18.12 ЮВ 4 н/о н/о +23.6 +3.8 28 +23 +23 комфорт 1022.8 1021.4 +18.3
09 18.12 З 5 н/о н/о +24.2 +13.6 52 +26 +26 жарко 1021.1 1019.6
12 18.12 З 5 н/о н/о +24.3 +10.9 43 +26 +26 жарко 1019.0 1017.6
15 18.12 ЮЗ 2 н/о н/о +23.7 +8.9 39 +24 +24 комфорт 1019.9 1018.5
18 18.12 Ю 3 н/о н/о +23.4 +8.1 38 +25 +25 комфорт 1020.4 1019.0 +25.4
21 18.12 ЮЗ 4 н/о н/о +22.9 +9.8 43 +25 +25 комфорт 1019.2 1017.8
00 19.12 Ю 2 н/о н/о +22.2 +11.1 49 +24 +24 комфорт 1018.6 1017.2
03 19.12 ЮВ 3 н/о н/о +18.9 +8.4 50 +20 +20 1019.6 1018.2
06 19.12 ЮВ 2 н/о н/о +23.5 +9.0 40 +24 +24 комфорт 1022.0 1020.6 +18.9
09 19.12 СЗ 5 н/о н/о +24.1 +14.9 56 +27 +27 жарко 1019.7 1018.3

 

Местоположение метеостанции Khasab (Оман): широта 26.21 долгота 56.24 высота над уровнем моря 4 м.

В архиве по умолчанию представлена погода в Khasab за последнюю неделю. Архивные данные за месяц целиком и за предыдущие месяцы, начиная с января 2011 года, Вы можете получить, выбрав интересующий диапазон дат из раскрывающегося списка и нажав кнопку "Ввод!".


*Определитесь, кто Вы:
робот инопланетянин человек

Внимание! Время в таблицах - всемирное. Для получения местного времени необходимо прибавить поправку, которая в Khasab равна 4 ч.

Смотрите также архив погоды в соседних городах и на ближайших метеорологических станциях:

Погода в Khasab Airport (Оман) (5 км)
Погода в Diba (Оман) (66 км)
Погода в Ras Al Khaimah Int Airport (ОАЭ) (73 км)
Погода в Bandarabbass (Иран) (113 км)
Погода в Sharjah (ОАЭ) (122 км)
Погода в Fujairah (ОАЭ) (124 км)
Погода в Dubai (ОАЭ) (140 км)
Погода в Bandar Lengeh (Иран) (146 км)
Погода в Abu Musa Island (Иран) (147 км)
Погода в Jask (Иран) (166 км)

Пояснения к столбцам:

Ветер - указаны скорость ветра в м/с - средняя за 10 мин, порывы в срок и между сроками (в фигурных скобках) и направление, откуда дует ветер: С - северный, СВ - северо-восточный, В - восточный, ЮВ - юго-восточный, Ю - южный, ЮЗ - юго-западный, З - западный, СЗ - северо-западный.
Видимость - горизонтальная дальность видимости в метрах или километрах. При видимости от 1 до 10 км при отсутствии осадков обычно наблюдается дымка, при ухудшении видимости до 1 км и менее - туман. В сухую погоду видимость может ухудшаться дымом, пылью или мглою.
Явления - указаны атмосферные явления, наблюдавшиеся в срок или в последний час перед сроком; фигурными скобками обозначены явления, наблюдавшиеся между сроками (за 1-3 часа до срока); квадратными скобками обозначены град или гололедные отложения с указанием их диаметра в мм.
Облачность - указаны через наклонную черту общая и нижняя облачность в баллах и высота нижней границы облаков в метрах; квадратными скобками обозначены формы облаков: Ci - перистые, Cs - перисто-слоистые, Cc - перисто-кучевые, Ac - высококучевые, As - высокослоистые, Sc - слоисто-кучевые, Ns - слоисто-дождевые, Cu - кучевые, Cb - кучево-дождевые. Подробнее классификацию облаков см. в Атласе облаков (PDF).
T - Температура воздуха - температура, измеренная на высоте 2 м над землей.
Td - Температура точки росы - температура, при понижении до которой содержащийся в воздухе водяной пар достигнет насыщения.
f - Относительная влажность воздуха - влажноcть воздуха, измеренная на высоте 2 м над землей.
Te - Эффективная температура - температура, которую ощущает одетый по сезону человек в тени. Характеристика душности погоды. При расчете учитывается влияние влажности воздуха и скорости ветра на теплоощущения человека.
Tes - Эффективная температура на солнце - температура, которую ощущает человек, с поправкой на солнечный нагрев. Характеристика знойности погоды. Зависит от высоты солнца над горизонтом, облачности и скорости ветра. Ночью, в пасмурную погоду, а также при ветре 12 м/с и более поправка равна нулю.
P - Атмосферное давление - приведенное к уровню моря атмосферное давление.
Po - Атмосферное давление - измеренное на уровне метеостанции атмосферное давление.
Tmin - Минимальная температура - минимум температуры воздуха на высоте 2 м над землей.
Tmax - Максимальная температура - максимум температуры воздуха на высоте 2 м над землей.
R - Количество осадков - Количество выпавших осадков за период времени, мм. При наведении курсора мыши на число - период времени, за который выпало указанное количество осадков.
R24 - Количество осадков - Количество выпавших осадков за 24 часа, мм.
S - Снежный покров - Высота снежного покрова, см. При наведении курсора мыши на число - состояние снежного покрова и степень покрытия местности в баллах.